Reflectivity
-20 -18 2 -20 -6 -20 -11 -7 -20 -18 -19 14 -13 -20 -20 10 -7 -6 -20 -20 -20 -20 -20 -20 -20 -20 -20 -20 -20 -20 -20 -20 -20 -20 -20 -20 -20 -20 -20 -20 -20 -20 -20 -20 -20
-20 -19 -2 1 -1 -4 -20 -20 -20 -20 -8 15 -3 3 -20 -20 -20 -20 -20 -20 -20 -20 -20 -20 -20 -20 -20 -20 -20 -20 -20 -20 -20 -20 -20 -20 -20 -20 -20 -20 -20 -20 -20 -20 -20
-20 -9 -20 -20 -20 -20 -20 -20 -20 -20 -20 8 0 2 -20 -20 -20 -20 -20 -20 -20 -20 -20 -20 -20 -20 -20 -20 -20 -20 -20 -20 -20 -20 -20 -20 -20 -20 -20 -20 -20 -20 -20 -20 -20
-20 -16 -5 -20 -20 -20 -20 -20 -20 -20 -20 -2 4 9 -20 -20 -20 -20 -20 -20 -20 -20 -20 -20 -20 -20 -20 -20 -20 -20 -20 -20 -20 -20 -20 -20 -20 -20 -20 -20 -20 -20 -20 -20 -20
-20 -20 -8 1 -18 -18 -20 -20 -20 -20 -20 -20 0 -9 -20 -20 -20 -20 -20 -20 -20 -20 -20 -20 -20 -20 -20 -20 -20 -20 -20 -20 -20 -20 -20 -20 -20 -20 -20 -20 -20 -20 -20 -20 -20
6 -1 -20 -10 7 -6 -20 -20 -20 -20 -20 -20 -16 -20 -20 -20 -20 -20 -20 -20 -20 -20 -20 -20 -20 -20 -20 -20 -20 -20 -20 -20 -20 -20 -20 -20 -20 -20 -20 -20 -20 -20 -20 -20 -20
7 6 17 5 -20 -7 -11 -20 -20 -20 -20 -20 1 -20 -20 -20 -20 -20 -20 -20 -20 -20 -20 -20 -20 -20 -20 -20 -20 -20 -20 -20 -20 -20 -20 -20 -20 -20 -20 -20 -20 -20 -20 -20 -20
-10 3 1 14 -20 -18 -20 -20 -20 -20 -20 -20 -11 -20 -20 -20 -20 -20 -20 -20 -20 -20 -20 -20 -20 -20 -20 -20 -20 -20 -20 -20 -20 -20 -20 -20 -20 -20 -20 -20 -20 -20 -20 -20 -20
-20 -0 4 -13 16 6 -20 -20 -20 -20 -20 -20 -20 -20 -20 -20 -20 -20 -20 -20 -20 -20 -20 -20 -20 -20 -20 -20 -20 -20 -20 -20 -20 -20 -20 -20 -20 -20 -20 -20 -20 -20 -20 -20 -20
-20 -20 -20 -18 11 22 17 -20 -20 -20 -20 -20 -13 -20 -20 -20 -20 -20 -20 -20 -20 -20 -20 -20 -20 -20 -20 -20 -20 -20 -20 -20 -20 -20 -20 -20 -20 -20 -20 -20 -20 -20 -20 -20 -20
10 -20 -20 -20 -20 -3 7 -20 -20 -20 -20 -20 -20 -20 -20 -20 -20 -20 -20 -20 -20 -20 -20 -20 -20 -20 -20 -20 -20 -20 -20 -20 -20 -20 -20 -20 -20 -20 -20 -20 -20 -20 -20 -20 -20
23 -10 -20 -20 -20 4 -17 -20 -20 -20 -20 -20 -20 -20 -20 -20 -20 -20 -20 -20 -20 -20 -20 -20 -20 -20 -20 -20 -20 -20 -20 -20 -20 -20 -20 -20 -20 -20 -20 -20 -20 -20 -20 -20 -20
-20 5 28 17 -2 -13 -0 19 -20 -20 -20 -20 -20 -20 -20 -20 -20 -20 -20 -20 -20 -20 -20 -20 -20 -20 -20 -20 -20 -20 -20 -20 -20 -20 -20 -20 -20 -20 -20 -20 -20 -20 -20 -20 -20
-20 -20 5 22 5 -20 -20 -20 24 17 5 -20 -20 -20 -20 -20 -20 -20 -20 -20 -20 -20 -20 -20 -20 -20 -20 -20 -20 -20 -20 -20 -20 -20 -20 -20 -20 -20 -20 -20 -20 -20 -20 -20 -20
21 26 -17 26 -11 -6 -16 -20 30 -15 14 -20 -20 -20 -20 -20 -20 -20 -20 -20 -20 -20 -20 -20 -20 -20 -20 -20 -20 -20 -20 -20 -20 -20 -20 -20 -20 -20 -20 -20 -20 -20 -20 -20 -20
-7 -5 26 22 28 -8 -20 22 21 21 -3 -20 -20 -20 -20 -20 -20 -20 -20 -20 -20 -20 -20 -20 -20 -20 -20 -20 -20 -20 -20 -20 -20 -20 -20 -20 -20 -20 -20 -20 -20 -20 -20 -20 -20
26 -4 24 21 14 29 -1 33 16 22 -20 -20 -20 -20 -20 -20 -20 -20 -20 -20 -20 -20 -20 -20 -20 -20 -20 -20 -20 -20 -20 -20 -20 -20 -20 -20 -20 -20 -20 -20 -20 -20 -20 -20 -20
-20 21 -4 -2 14 35 26 28 25 8 -17 -20 -20 -20 -20 -20 -20 -20 -20 -20 -20 -20 -20 -20 -20 -20 -20 -20 -20 -20 -20 -20 -20 -20 -20 -20 -20 -20 -20 -20 -20 -20 -20 -20 -20
24 16 -7 -12 19 16 39 29 16 -20 -20 -20 -20 -20 -20 -20 -20 13 -16 -20 -20 -20 -20 -20 -20 -20 -20 -20 -20 -20 -20 -20 -20 -20 -20 -20 -20 -20 -20 -20 -20 -20 -20 -20 -20
21 11 -20 -7 21 2 35 26 1 -20 -20 -20 -20 -20 -20 -20 -20 18 9 -10 -18 -16 -20 -20 -20 -20 -20 -20 -20 -20 -20 -20 -20 -20 -20 -20 -20 -20 -20 -20 -20 -20 -20 -20 -20
22 3 -17 14 17 27 30 14 -9 -20 10 19 -20 -11 -20 -20 -15 4 14 -15 -20 -5 -20 -20 -20 -20 -20 -20 -20 -20 -20 -20 -20 -20 -20 -20 -20 -20 -20 -20 -20 -20 -20 -20 -20
17 1 -20 31 19 26 25 -3 -6 2 13 19 25 21 14 11 23 18 10 9 9 16 -6 -14 -16 -20 -20 -20 -20 -20 -20 -20 -20 -20 -20 -20 -20 -20 -20 -20 -20 -20 -20 -20 -20
11 5 18 15 10 -2 10 -2 6 17 -11 4 -13 -5 -19 -11 4 4 16 19 16 17 -6 -17 5 -20 -20 -20 -20 -20 -20 -20 -20 -20 -20 -20 -20 -20 -20 -20 -20 -20 -20 -20 -20
-17 -9 30 15 17 -0 -20 -20 7 -18 -6 21 -7 14 14 -13 -16 7 15 25 5 6 -20 -3 -7 -20 -20 -20 -20 -20 -20 -20 -20 -20 -20 -20 -20 -20 -20 -20 -20 -20 -20 -20 -20
16 -9 -11 23 -15 11 -20 -20 -20 -7 18 30 28 -5 -20 -8 12 16 27 30 18 12 11 -20 -17 -20 -20 -20 -20 -20 -20 -20 -20 -20 -20 -20 -20 -20 -20 -20 -20 -20 -20 -20 -20
19 19 -15 5 -17 14 10 -10 -20 -9 23 14 5 -20 -19 -20 5 19 14 22 21 6 6 -20 -20 -20 -20 -20 -20 -20 -20 -20 -20 -20 -20 -20 -20 -20 -20 -20 -20 -20 -20 -20 -20
9 3 0 0 11 12 14 20 16 -5 -15 -17 -18 -17 -13 -6 11 17 33 34 28 10 14 11 -15 -2 -9 -20 -20 -20 -20 -20 -20 -20 -20 -20 -20 -20 -20 -20 -20 -20 -20 -20 -20
Wind_Speed
11 11 11 11 12 13 13 13 14 13 12 12 11 9 8 9 8 1 6 8 7 6 0 1 0 2 2 1 3 3 3 3 4 6 3 1 4 2 2 6 2 2 5 10 15
12 12 12 11 11 12 14 14 13 14 13 12 9 9 6 5 2 7 11 11 10 5 1 4 4 5 2 3 2 4 4 8 3 2 2 1 3 6 4 2 2 4 7 19 15
12 13 13 11 11 12 12 14 14 14 13 12 9 7 6 2 2 6 14 13 8 5 2 2 2 4 4 3 4 5 5 5 3 2 3 3 3 2 9 3 6 8 18 16 11
14 14 14 14 12 12 13 13 14 15 14 12 9 8 6 2 3 2 10 9 8 4 2 3 3 6 5 6 5 3 5 3 2 1 1 3 1 3 5 4 4 15 25 18 13
15 15 15 14 14 13 13 14 14 14 14 11 8 7 1 1 9 4 10 7 2 3 5 4 4 5 5 6 4 4 2 3 5 3 1 3 2 3 4 3 5 11 14 17 12
18 15 15 15 15 14 13 15 15 14 14 11 8 7 2 5 4 5 7 4 4 4 3 4 5 5 5 3 5 5 5 4 4 3 3 3 2 3 6 5 7 11 11 11 12
19 18 18 15 15 14 14 15 15 15 14 11 8 3 4 13 2 5 6 5 5 4 2 3 3 3 2 3 3 5 5 1 4 4 4 4 6 10 5 6 9 12 10 8 8
19 18 18 17 15 13 14 15 15 16 15 9 7 2 8 3 3 3 3 2 3 3 2 2 3 3 3 3 5 4 4 3 3 8 2 6 8 4 7 10 10 9 7 9 9
19 18 18 18 15 14 12 14 16 17 10 4 2 2 9 2 4 6 5 3 3 3 1 2 1 2 3 6 3 3 4 5 5 8 5 5 7 2 3 9 10 9 9 9 8
17 14 15 16 18 15 11 12 13 6 2 3 4 1 5 5 4 6 4 5 2 4 4 2 4 3 1 5 8 8 5 5 6 7 4 5 11 7 2 8 14 10 8 9 12
17 16 14 13 16 18 4 3 3 2 4 11 9 6 1 2 4 4 6 6 3 4 6 3 4 15 16 6 2 6 5 6 3 5 5 8 7 10 6 5 7 9 9 9 12
20 17 15 15 14 16 2 5 6 3 7 12 15 13 5 4 4 4 9 7 6 6 5 3 13 8 3 5 2 4 5 4 2 3 6 2 12 10 9 8 12 15 10 11 7
20 18 19 14 12 4 6 7 4 4 4 7 9 10 8 8 8 13 14 6 5 7 7 7 6 11 9 6 8 3 5 5 3 2 2 4 9 6 6 7 7 10 13 12 16
21 21 17 13 7 5 8 9 7 1 4 8 7 10 9 9 8 7 13 8 4 12 6 7 5 7 8 6 8 5 7 5 7 5 4 2 7 5 3 5 9 11 11 11 10
21 21 19 16 4 3 4 4 8 2 5 7 7 2 8 14 9 10 13 5 11 9 8 9 5 7 5 5 8 5 6 6 4 5 2 2 2 8 1 6 9 10 10 10 13
18 12 18 8 5 6 3 2 4 6 10 5 6 6 7 4 3 5 10 4 6 6 3 6 2 6 6 4 3 10 8 8 6 3 2 6 7 7 6 7 3 4 7 9 10
19 18 9 6 5 5 5 3 7 10 3 6 6 6 7 8 5 7 12 12 9 7 6 1 2 0 4 8 4 4 7 4 4 3 7 2 4 11 6 6 5 10 9 9 9
20 19 6 8 6 3 5 9 12 8 8 2 4 6 9 7 4 4 9 15 7 4 5 9 4 8 5 7 9 6 7 8 9 6 4 5 8 8 5 2 5 6 7 8 9
16 3 4 4 8 7 8 14 9 5 7 9 4 4 5 5 7 3 12 17 13 8 8 7 5 2 1 4 9 7 6 3 7 3 4 5 7 8 4 3 4 8 9 9 11
2 2 8 7 10 4 8 13 5 6 6 3 11 6 10 10 8 13 9 12 14 15 3 5 4 1 2 3 3 4 8 3 3 4 4 4 6 6 6 7 6 8 10 8 7
1 3 3 7 7 5 7 6 3 6 2 6 6 5 4 5 8 6 7 10 21 15 11 4 5 2 4 6 8 3 3 4 5 4 6 4 8 6 8 9 13 12 11 11 9
2 4 2 8 6 2 5 4 3 7 8 4 3 4 8 10 5 7 9 8 13 15 15 5 6 4 4 4 1 2 7 6 7 6 0 2 7 2 2 9 11 10 9 8 9
2 3 2 3 5 6 1 8 5 4 6 7 9 6 5 9 4 11 13 3 5 16 19 11 3 5 5 6 4 5 5 5 5 4 6 7 6 2 3 7 7 10 9 9 8
1 3 2 2 1 5 4 5 6 8 3 6 6 5 4 5 5 1 10 4 6 9 16 19 5 7 9 8 6 6 6 6 6 4 6 7 3 4 4 8 7 8 9 9 8
2 4 1 2 6 6 9 4 9 5 8 6 4 7 8 5 4 6 3 3 0 8 4 6 7 5 3 4 4 5 7 12 10 6 7 5 9 8 11 11 9 8 7 8 8
2 2 1 2 2 4 8 5 7 7 6 5 4 7 8 7 6 4 8 3 2 1 3 2 3 4 3 2 1 3 6 13 14 3 6 3 6 7 3 6 6 9 9 8 7
2 2 0 2 3 4 3 5 4 1 5 4 8 5 10 12 2 9 2 1 1 2 2 3 7 4 4 2 1 6 11 15 8 5 9 8 10 7 4 9 11 10 10 10 9
Wind_Direction
307 312 317 325 328 333 335 336 335 329 325 324 319 312 319 329 330 81 248 234 210 203 174 341 159 159 122 201 141 133 79 214 219 169 243 144 121 56 8 108 67 41 145 148 136
302 306 306 313 318 323 329 331 331 329 323 321 327 314 315 337 282 245 241 245 211 203 112 185 181 145 157 193 170 129 161 210 224 223 189 108 119 135 107 100 78 60 52 126 140
304 310 310 302 308 311 321 327 329 330 322 319 319 325 323 332 336 247 209 217 221 216 216 180 117 165 169 147 188 172 197 206 227 200 203 146 86 107 125 250 207 169 143 145 153
301 305 309 308 302 305 312 319 324 326 323 316 321 321 309 301 251 263 163 193 221 155 189 175 172 158 156 190 179 157 218 172 197 264 80 120 128 105 189 222 189 160 158 154 165
296 296 298 301 302 299 304 310 315 321 322 313 309 315 299 204 256 210 174 185 200 154 237 199 164 157 189 183 130 176 209 180 207 146 129 132 189 202 238 223 110 126 158 163 164
303 291 288 292 300 299 299 303 307 313 318 309 296 311 200 250 237 176 160 146 197 208 229 187 209 207 180 191 163 188 179 182 183 202 176 187 253 133 253 116 143 152 171 174 167
322 308 295 284 284 287 291 295 301 304 311 301 286 281 237 243 241 181 164 191 169 172 239 228 208 190 129 131 168 129 122 142 215 205 218 132 274 227 201 166 166 183 173 154 161
318 319 316 293 280 277 283 293 297 299 301 281 269 285 251 243 242 171 180 223 182 170 196 186 216 140 140 115 31 112 70 155 245 162 232 107 267 276 201 159 181 175 161 154 175
306 316 320 320 293 275 274 290 295 296 281 229 222 214 261 285 160 187 150 188 152 117 106 156 93 144 62 112 56 345 187 204 299 197 139 162 269 279 194 169 182 178 172 177 166
287 296 307 314 323 286 269 291 291 286 189 176 261 311 260 219 177 156 163 136 155 115 90 107 57 140 70 156 199 184 188 212 207 207 160 188 258 274 246 188 190 186 181 180 179
285 288 289 295 313 326 267 343 358 301 239 194 196 220 207 181 111 155 148 111 98 97 165 179 171 208 200 192 205 142 152 168 202 177 142 216 258 250 228 218 205 202 188 192 190
287 275 280 278 288 308 229 192 218 164 287 239 245 243 284 196 132 174 127 152 156 193 138 105 234 215 167 190 211 181 155 183 16 140 164 215 260 244 219 213 205 202 198 195 167
281 278 273 275 285 271 206 219 156 150 250 270 211 212 203 174 203 186 157 145 153 172 189 179 211 178 166 172 192 246 166 169 154 119 107 13 283 231 238 208 197 212 204 193 187
283 274 267 266 289 191 231 223 211 161 271 270 218 240 183 148 234 168 175 136 176 190 170 231 261 169 155 189 153 209 196 145 135 110 208 99 274 289 227 242 220 204 195 187 169
288 286 278 235 248 217 271 215 146 175 242 238 208 188 160 175 135 218 177 104 167 175 146 232 191 159 166 193 155 209 112 119 96 94 51 190 68 265 339 257 231 207 197 192 177
280 277 294 263 239 243 43 345 102 201 220 241 171 167 126 182 89 77 171 97 148 141 201 222 202 165 168 79 141 147 81 48 56 74 360 216 157 272 196 213 195 179 196 183 169
284 280 260 218 221 285 168 218 188 222 156 198 187 168 157 163 137 152 175 177 165 135 176 144 192 228 131 84 11 88 95 25 3 3 218 153 137 249 244 230 206 186 188 184 162
276 278 271 253 189 146 188 216 211 186 185 127 149 139 180 136 173 150 150 195 243 96 122 155 240 171 184 163 166 188 155 156 195 192 201 127 226 252 209 299 244 173 161 154 154
292 275 240 209 176 166 229 225 200 210 184 155 87 119 193 165 132 151 188 199 205 187 151 134 226 44 122 143 149 192 195 148 106 23 60 219 281 292 189 45 115 140 142 167 165
237 237 245 183 172 170 243 244 225 194 134 128 187 158 179 181 166 177 194 210 206 188 168 189 100 173 150 110 30 162 159 99 1 133 245 261 275 236 202 191 165 160 169 172 171
42 262 259 161 146 199 216 225 187 267 185 157 174 136 162 152 169 186 210 249 206 183 165 125 100 255 137 218 162 139 178 53 114 127 166 157 256 214 200 177 180 185 179 178 178
204 247 285 154 201 215 191 192 242 222 226 213 163 157 172 162 167 211 224 234 189 171 186 162 122 148 200 314 313 169 177 148 131 239 151 157 271 26 239 188 171 178 177 177 179
235 263 192 181 213 216 264 227 253 263 234 196 205 181 175 165 203 201 213 268 203 182 174 173 173 87 9 345 340 207 190 122 115 88 203 139 258 26 80 150 179 167 182 183 179
149 282 247 174 300 157 155 197 217 217 272 249 178 147 132 169 229 270 217 212 234 197 183 158 130 153 181 207 151 186 189 178 138 131 164 224 221 254 196 180 181 183 182 174 180
213 242 288 210 245 219 168 192 209 231 200 220 231 198 164 170 194 207 155 223 344 137 100 150 143 123 79 129 140 181 177 171 188 180 160 227 198 214 205 195 188 171 146 152 176
207 206 195 267 196 191 175 186 193 186 195 208 212 192 181 178 187 230 148 196 256 29 105 320 114 106 84 169 270 238 193 197 208 183 275 139 260 217 165 119 152 175 160 168 173
190 280 110 196 149 150 220 195 186 56 260 216 203 222 229 215 128 153 185 65 255 95 82 91 133 109 197 158 286 296 202 190 197 197 163 189 214 157 165 183 186 174 171 168 165